Temp
7 5 5 3 3 3 3 3 4 5 4 4 3 3 3 4 4 4 3 3 3 3 3 3 3 3 3 3 4 6 6 7 7 7 8 9 9 11 10 11 12 12 14 14 15 15 14
7 6 5 4 3 3 3 3 3 4 4 4 4 3 4 3 3 3 3 3 3 3 3 3 3 3 3 3 5 5 6 7 8 7 8 9 9 11 12 11 11 13 13 13 12 13 13
8 7 5 4 3 3 3 3 3 3 4 4 4 3 3 3 3 4 3 3 4 4 3 3 4 3 3 4 5 5 6 7 7 8 9 9 10 11 12 11 13 13 11 12 13 13 14
8 7 6 7 3 3 2 3 3 3 3 4 3 4 3 3 3 4 4 3 3 4 4 3 3 3 3 5 5 5 5 6 7 8 9 10 10 11 11 12 12 12 11 11 13 13 15
8 7 7 7 5 3 3 2 2 3 3 4 5 3 3 4 3 3 4 4 3 4 4 3 3 3 4 5 5 5 5 5 7 7 8 10 9 10 11 9 9 11 9 10 13 13 14
8 7 7 7 6 5 5 4 2 2 3 3 5 4 4 4 3 3 4 4 4 4 4 4 3 3 5 5 5 5 4 6 6 8 8 9 9 8 9 9 9 10 9 11 12 13 13
8 7 7 7 7 5 5 6 4 6 3 3 6 5 4 4 4 3 4 4 4 4 4 4 4 4 5 5 5 5 5 4 6 7 8 9 8 8 9 10 10 10 11 11 12 13 13
7 7 7 7 6 6 6 5 4 5 6 5 6 6 5 4 4 4 4 4 3 3 3 4 4 4 5 5 5 5 5 5 6 6 9 8 8 9 9 11 11 11 10 10 13 13 13
7 7 7 7 6 6 6 6 6 5 6 6 6 6 5 5 4 4 3 4 3 3 2 4 4 4 5 5 5 4 5 6 7 7 9 9 8 10 10 10 10 10 9 10 12 12 12
7 7 7 6 6 5 5 5 6 6 6 6 7 7 6 5 4 4 4 4 3 3 2 4 5 5 5 5 5 5 5 6 6 8 9 9 9 9 9 10 10 10 11 11 11 10 10
7 7 7 6 6 5 5 5 6 6 6 6 7 7 6 5 4 4 4 4 3 3 1 5 4 4 5 5 5 5 6 8 7 7 8 7 8 9 9 10 11 10 12 10 10 9 10
7 7 6 6 6 6 5 5 5 6 6 6 7 7 6 5 4 4 4 4 3 1 2 4 5 4 4 5 6 6 7 7 7 8 7 7 7 7 8 8 11 10 10 8 7 7 6
7 7 6 6 5 5 5 5 6 6 6 7 8 7 6 5 4 3 3 3 1 3 6 5 6 7 7 7 7 7 7 7 7 7 6 6 6 7 7 8 9 9 9 6 7 6 7
7 7 6 6 5 5 5 5 5 6 6 7 8 7 6 5 4 4 4 1 3 6 6 7 7 8 8 7 7 6 7 6 7 6 6 6 6 6 6 7 8 8 8 5 7 6 6
7 6 6 6 6 5 5 4 5 5 6 7 7 7 6 5 4 4 4 1 3 3 7 8 8 8 8 8 7 6 6 8 8 6 6 7 6 6 6 6 8 7 7 9 6 7 3
6 6 6 6 5 5 4 4 4 5 6 7 6 6 6 5 4 4 1 3 4 6 9 9 8 9 8 8 7 7 6 8 8 8 7 6 6 6 6 7 6 7 8 7 4 6 7
6 6 6 5 5 5 4 4 4 5 6 7 6 6 6 5 4 4 0 1 5 8 9 9 8 9 9 9 8 7 7 8 9 8 7 6 6 6 6 7 8 6 7 7 8 5 6
6 6 5 5 5 4 4 4 4 5 6 6 6 2 5 4 4 4 2 4 8 9 9 9 9 9 9 10 11 10 8 9 10 9 8 8 5 6 7 8 8 8 7 9 8 7 5
6 5 5 5 4 4 3 4 4 5 5 5 5 5 4 3 5 6 6 8 8 9 9 9 9 9 9 10 10 9 8 9 9 9 8 8 4 4 6 6 7 7 7 9 8 6 5
5 5 5 4 3 3 3 3 4 5 5 5 5 3 4 3 5 6 7 7 8 8 9 9 9 9 9 9 9 8 8 9 9 9 9 9 5 5 5 7 6 5 7 7 6 4 7
5 5 4 4 3 3 2 3 4 5 5 5 4 2 2 3 5 5 6 9 8 8 8 9 9 9 9 8 9 8 8 8 9 9 9 7 4 3 6 8 7 6 7 7 7 8 7
5 4 4 3 3 2 2 2 3 4 5 5 1 1 1 1 3 4 6 8 9 8 8 8 8 8 8 9 8 7 7 7 8 8 8 5 3 3 3 7 7 6 6 6 7 7 7
5 4 3 3 3 2 2 1 2 3 4 3 1 0 1 2 2 4 4 7 6 8 9 9 9 8 8 8 9 9 10 9 8 7 6 6 3 1 2 5 5 5 6 6 7 7 7
5 3 3 2 2 2 1 1 1 2 2 2 1 0 0 1 1 2 3 5 5 5 6 8 8 8 8 9 9 9 10 8 8 7 7 5 4 1 0 3 2 7 8 7 7 8 7
4 3 3 2 2 2 1 1 1 1 1 1 1 1 -0 -1 -0 2 2 3 4 5 6 7 8 8 8 9 6 7 6 8 8 7 7 6 7 4 2 1 4 8 8 7 6 7 7
4 3 3 2 2 1 1 1 0 1 1 1 1 0 -0 -1 -0 1 1 2 2 2 3 7 7 7 8 6 7 6 5 6 7 8 7 8 8 4 6 6 5 8 9 9 9 6 9
3 3 3 2 2 1 1 0 0 0 1 1 0 -0 -0 -1 0 0 0 0 2 2 3 4 5 6 7 4 5 6 4 7 7 7 7 7 7 4 6 6 5 7 8 10 7 7 8
3 3 2 2 1 1 0 -0 -0 -0 1 0 -0 -1 -1 -1 -0 0 1 1 0 1 1 2 4 5 4 4 4 4 5 5 6 7 5 5 6 6 7 6 4 8 9 8 8 9 8
3 3 2 1 1 0 0 -0 -0 -1 -0 -0 -1 -1 -1 -2 -0 -0 0 0 0 1 -1 1 1 3 2 4 3 2 4 3 4 5 5 5 5 5 5 5 7 9 9 10 10 9 9
Height
1546 1541 1537 1532 1526 1522 1517 1514 1511 1508 1505 1499 1493 1485 1479 1474 1470 1469 1470 1471 1472 1471 1471 1471 1470 1470 1470 1472 1467 1465 1467 1468 1475 1477 1487 1490 1495 1499 1502 1503 1508 1512 1512 1516 1521 1524 1528
1545 1541 1537 1531 1526 1521 1517 1513 1510 1506 1502 1498 1492 1485 1479 1475 1473 1471 1470 1471 1471 1471 1471 1470 1470 1470 1471 1471 1464 1463 1463 1462 1468 1477 1484 1489 1493 1499 1502 1503 1507 1508 1511 1518 1522 1526 1529
1544 1541 1536 1531 1525 1520 1515 1511 1508 1505 1501 1496 1492 1486 1480 1476 1474 1473 1472 1471 1470 1471 1470 1470 1470 1469 1469 1466 1464 1463 1461 1464 1470 1474 1479 1488 1493 1497 1498 1503 1506 1508 1516 1516 1515 1519 1524
1543 1540 1535 1530 1524 1520 1515 1510 1507 1503 1499 1496 1490 1485 1482 1478 1476 1474 1473 1472 1472 1471 1469 1469 1469 1468 1466 1464 1462 1462 1464 1465 1469 1476 1483 1488 1494 1497 1498 1500 1505 1508 1513 1518 1510 1513 1519
1541 1538 1534 1529 1524 1519 1515 1509 1506 1502 1498 1494 1489 1484 1481 1479 1476 1475 1472 1472 1471 1470 1468 1469 1470 1469 1466 1465 1465 1464 1465 1467 1470 1476 1484 1489 1493 1496 1498 1501 1509 1506 1518 1515 1513 1511 1512
1540 1536 1533 1529 1524 1519 1513 1509 1504 1501 1496 1492 1489 1485 1481 1479 1477 1476 1474 1473 1471 1470 1470 1469 1470 1472 1467 1467 1466 1468 1466 1468 1469 1475 1483 1489 1493 1496 1496 1498 1501 1502 1510 1509 1509 1508 1511
1538 1535 1532 1528 1524 1519 1513 1508 1503 1499 1495 1489 1486 1484 1482 1480 1478 1476 1473 1472 1474 1472 1469 1470 1470 1470 1467 1466 1466 1470 1470 1469 1470 1472 1473 1485 1490 1488 1492 1494 1495 1500 1504 1510 1508 1506 1510
1537 1534 1530 1527 1523 1518 1513 1509 1504 1499 1493 1488 1484 1482 1479 1479 1478 1476 1474 1472 1471 1474 1472 1470 1469 1469 1466 1468 1468 1471 1473 1471 1472 1469 1473 1486 1488 1491 1492 1494 1497 1499 1505 1509 1505 1504 1508
1535 1532 1529 1525 1521 1517 1513 1507 1502 1498 1492 1486 1481 1478 1478 1477 1478 1477 1475 1473 1471 1472 1472 1472 1470 1468 1468 1469 1469 1469 1469 1465 1468 1471 1476 1481 1488 1490 1493 1497 1502 1503 1507 1508 1507 1507 1509
1533 1530 1527 1524 1520 1515 1510 1505 1501 1495 1490 1485 1479 1476 1475 1475 1476 1475 1474 1473 1473 1472 1474 1475 1471 1470 1470 1469 1470 1472 1470 1470 1472 1472 1479 1483 1487 1492 1495 1499 1501 1507 1501 1503 1507 1512 1521
1531 1528 1525 1522 1518 1514 1508 1503 1498 1494 1489 1484 1479 1475 1473 1472 1472 1473 1473 1473 1472 1472 1496 1479 1476 1472 1468 1472 1476 1469 1466 1468 1472 1476 1482 1492 1490 1493 1497 1498 1500 1504 1498 1503 1507 1514 1515
1529 1526 1522 1519 1515 1512 1507 1503 1497 1491 1486 1482 1477 1474 1472 1470 1471 1471 1471 1472 1473 1482 1495 1480 1475 1478 1475 1474 1475 1474 1469 1471 1475 1479 1486 1492 1493 1495 1498 1499 1498 1500 1502 1509 1516 1523 1533
1527 1524 1520 1517 1513 1509 1505 1500 1495 1488 1483 1478 1474 1472 1471 1470 1470 1469 1470 1471 1480 1484 1479 1477 1471 1469 1470 1472 1475 1476 1477 1477 1478 1483 1494 1496 1498 1499 1500 1500 1499 1500 1505 1530 1531 1538 1522
1524 1522 1519 1515 1511 1507 1502 1496 1490 1484 1479 1475 1473 1471 1471 1469 1470 1470 1470 1474 1482 1475 1474 1472 1471 1468 1469 1472 1477 1478 1481 1483 1482 1486 1495 1500 1506 1502 1502 1501 1501 1504 1508 1526 1523 1531 1525
1522 1520 1517 1513 1509 1505 1499 1493 1487 1481 1476 1473 1470 1470 1471 1471 1470 1471 1472 1482 1477 1477 1468 1468 1468 1470 1469 1470 1475 1480 1481 1479 1481 1485 1492 1495 1500 1503 1501 1501 1501 1507 1512 1507 1516 1520 1539
1520 1518 1515 1511 1507 1503 1496 1491 1485 1478 1474 1470 1470 1470 1472 1471 1470 1471 1473 1474 1470 1466 1465 1465 1468 1465 1469 1469 1473 1474 1480 1475 1477 1479 1481 1490 1498 1501 1502 1504 1505 1503 1506 1512 1523 1523 1517
1518 1516 1513 1509 1505 1500 1495 1490 1483 1477 1472 1469 1470 1469 1472 1472 1473 1472 1480 1476 1466 1463 1463 1465 1464 1462 1462 1464 1466 1471 1476 1473 1473 1477 1480 1485 1492 1499 1501 1497 1495 1504 1500 1502 1501 1515 1518
1515 1513 1510 1507 1503 1498 1494 1488 1482 1476 1472 1469 1470 1472 1472 1473 1474 1469 1474 1468 1463 1462 1462 1463 1462 1460 1460 1459 1458 1460 1468 1468 1469 1472 1478 1478 1489 1494 1492 1491 1493 1493 1495 1493 1498 1501 1512
1513 1511 1509 1505 1501 1497 1492 1488 1482 1476 1471 1469 1469 1471 1472 1473 1470 1468 1467 1466 1465 1462 1462 1462 1462 1461 1461 1461 1463 1465 1466 1467 1467 1470 1473 1475 1490 1500 1496 1497 1493 1491 1491 1489 1493 1497 1507
1510 1509 1507 1503 1500 1496 1491 1486 1481 1475 1471 1470 1471 1473 1473 1474 1472 1470 1466 1465 1466 1464 1462 1461 1462 1461 1462 1463 1463 1467 1469 1468 1467 1469 1470 1472 1483 1489 1493 1482 1485 1492 1485 1487 1493 1505 1487
1508 1506 1505 1502 1499 1495 1491 1486 1480 1475 1471 1470 1472 1477 1477 1473 1471 1469 1471 1463 1465 1466 1464 1461 1462 1463 1463 1466 1465 1467 1469 1470 1470 1471 1472 1474 1488 1490 1481 1477 1480 1481 1481 1483 1483 1477 1483
1505 1505 1503 1500 1498 1494 1490 1486 1481 1476 1471 1470 1472 1475 1476 1477 1473 1472 1468 1465 1463 1465 1466 1464 1462 1461 1463 1463 1465 1468 1467 1470 1470 1471 1472 1476 1492 1489 1492 1479 1478 1479 1477 1478 1476 1477 1476
1502 1503 1501 1499 1496 1493 1490 1487 1482 1477 1474 1472 1474 1475 1475 1473 1473 1473 1474 1469 1469 1464 1464 1463 1462 1461 1463 1462 1462 1462 1462 1463 1465 1470 1474 1477 1487 1498 1502 1486 1483 1482 1470 1469 1468 1466 1466
1501 1500 1499 1497 1495 1493 1492 1488 1485 1481 1478 1476 1474 1475 1476 1477 1473 1475 1474 1472 1467 1469 1466 1463 1462 1461 1463 1462 1463 1464 1464 1464 1465 1468 1469 1478 1482 1495 1506 1493 1508 1462 1455 1457 1458 1455 1459
1497 1498 1497 1495 1494 1493 1492 1490 1487 1484 1481 1479 1477 1477 1477 1480 1478 1476 1475 1473 1469 1465 1465 1463 1462 1462 1461 1463 1468 1470 1472 1469 1468 1468 1470 1471 1474 1487 1502 1505 1476 1452 1453 1455 1458 1452 1448
1493 1495 1494 1494 1492 1492 1491 1490 1488 1485 1483 1481 1480 1480 1482 1484 1483 1479 1477 1475 1474 1471 1466 1462 1463 1461 1461 1463 1466 1471 1478 1472 1470 1467 1468 1469 1470 1485 1483 1482 1482 1457 1449 1449 1450 1457 1443
1490 1491 1493 1492 1491 1490 1490 1489 1489 1486 1484 1482 1480 1481 1481 1481 1480 1477 1477 1480 1479 1475 1473 1467 1465 1463 1461 1466 1470 1471 1475 1463 1466 1467 1469 1471 1473 1483 1479 1479 1470 1453 1449 1450 1461 1456 1442
1488 1490 1491 1491 1491 1490 1489 1488 1488 1485 1482 1480 1479 1478 1478 1475 1473 1475 1476 1477 1478 1477 1477 1471 1468 1466 1466 1467 1469 1469 1469 1465 1466 1463 1468 1472 1474 1471 1472 1474 1480 1449 1451 1455 1449 1445 1443
1486 1487 1490 1490 1490 1490 1489 1488 1487 1485 1483 1481 1478 1479 1478 1476 1475 1475 1472 1473 1474 1476 1477 1475 1472 1469 1468 1467 1468 1469 1466 1467 1466 1468 1463 1468 1463 1468 1466 1463 1450 1449 1447 1446 1445 1445 1444
Wind_Speed
22 22 22 21 20 20 19 18 17 18 22 24 28 29 24 19 13 5 3 1 1 2 3 4 3 3 6 4 19 6 9 14 29 28 27 22 26 19 5 6 12 3 15 15 16 19 25
21 22 21 22 21 21 18 19 18 17 20 24 27 28 21 17 10 6 4 3 2 1 1 4 3 3 6 8 6 14 11 20 37 34 30 25 20 17 13 7 12 10 3 15 10 16 18
21 23 23 22 21 21 21 19 17 17 20 23 24 26 17 14 9 5 4 4 1 1 3 3 4 3 8 15 7 7 8 18 31 32 32 29 11 16 13 4 13 7 7 5 9 12 9
20 23 23 25 21 21 20 21 19 18 17 20 21 23 17 12 10 4 4 5 5 5 7 4 3 4 6 13 10 8 5 13 25 27 30 28 18 20 4 6 8 5 5 5 5 12 12
18 21 23 25 23 21 21 21 20 19 18 17 19 19 15 12 9 9 6 5 6 8 4 4 3 3 7 5 5 4 0 4 20 28 26 29 19 10 6 7 4 3 6 7 7 14 6
16 19 23 24 23 23 23 23 21 20 20 17 15 16 15 9 6 7 5 4 6 8 7 4 4 4 4 6 5 2 5 3 11 28 23 18 9 4 4 6 16 14 6 7 9 13 6
15 18 21 22 22 22 23 24 24 23 21 19 14 12 11 8 4 4 5 2 2 2 4 1 5 5 9 10 4 6 4 10 13 23 6 19 6 14 9 4 6 8 6 6 3 4 7
14 16 18 21 21 23 24 25 24 25 24 22 17 9 7 7 4 4 4 4 5 2 4 6 7 6 3 3 2 5 13 7 7 15 13 7 8 4 8 2 4 9 8 6 2 3 8
14 15 16 19 22 21 24 24 25 25 25 24 20 11 6 3 3 2 4 3 5 2 0 3 5 5 4 3 5 4 5 4 14 11 17 10 7 8 8 3 4 2 5 4 4 3 2
14 15 16 17 20 23 22 24 25 26 26 25 20 12 5 2 2 1 3 1 0 6 3 7 6 6 5 2 5 4 3 6 4 14 10 6 6 7 8 4 4 2 5 5 6 5 4
13 14 17 18 18 21 23 26 26 26 26 24 19 10 5 3 3 3 4 2 4 0 5 5 5 10 9 4 4 7 8 12 7 9 4 1 4 9 5 3 5 5 3 7 4 4 3
12 13 16 19 22 21 23 24 28 27 24 22 17 7 5 3 2 3 3 3 3 5 1 1 5 1 4 3 2 5 7 11 3 8 8 4 4 4 2 2 3 4 6 8 5 3 1
11 13 17 20 21 24 26 24 26 28 23 21 14 3 4 4 2 3 5 3 4 5 3 4 3 4 7 3 4 3 1 3 3 4 4 4 4 2 2 5 4 4 5 2 1 1 8
10 12 15 20 22 25 29 29 27 26 21 17 9 3 3 2 1 1 4 3 7 4 3 0 1 5 3 4 4 2 5 2 3 5 4 5 3 1 2 2 5 3 4 5 6 4 4
10 11 15 19 23 26 28 27 26 26 19 15 2 4 0 4 4 4 2 4 7 5 4 4 2 2 0 2 5 3 2 6 4 7 5 4 2 1 2 2 2 3 5 4 4 2 3
10 11 15 19 23 26 25 25 26 26 19 10 2 4 1 3 4 3 3 3 2 3 2 3 3 6 3 5 5 5 4 4 5 5 6 6 4 3 3 3 2 1 1 1 2 3 4
8 10 15 19 22 24 23 24 26 26 19 9 5 3 1 3 4 1 2 5 3 6 3 2 2 2 3 4 5 5 8 4 6 7 8 6 4 4 5 7 10 5 4 4 2 4 4
8 11 15 18 21 22 21 23 24 25 19 6 3 3 1 2 2 3 1 4 2 3 3 3 1 2 0 2 2 2 5 3 8 11 6 6 5 4 2 3 4 3 6 5 3 4 2
8 11 14 17 20 21 21 22 22 22 17 11 3 3 2 3 1 1 3 2 2 1 2 0 2 1 2 2 2 2 2 2 4 4 6 5 0 3 2 1 2 6 6 7 1 2 6
7 10 13 16 17 20 21 21 21 19 12 6 3 2 1 4 5 4 2 3 3 3 2 1 2 1 1 1 2 2 2 1 3 2 3 5 3 5 6 4 5 5 10 13 7 4 4
7 8 11 13 16 19 21 20 20 18 10 4 4 3 3 2 1 3 4 1 3 3 3 2 1 3 3 3 2 3 2 1 2 1 2 3 4 2 4 2 4 4 6 14 17 15 8
5 6 8 11 16 17 19 18 19 18 10 12 4 3 4 5 11 5 2 2 2 1 4 3 2 1 3 4 6 6 5 3 4 1 2 2 1 2 4 3 2 4 6 9 15 15 17
3 4 5 11 16 14 16 15 19 20 15 9 5 4 1 3 4 1 4 4 5 3 1 3 2 1 4 4 3 1 9 8 5 7 4 3 4 3 4 4 5 7 12 14 8 10 13
4 3 4 9 13 13 14 14 15 18 19 17 13 5 2 1 3 2 5 5 5 6 2 3 2 1 1 2 4 5 7 6 8 3 7 5 5 3 2 3 1 6 2 7 16 14 13
5 3 3 8 11 10 10 13 16 13 14 14 16 7 3 1 3 4 10 4 9 8 2 3 1 1 1 2 3 3 3 3 3 5 4 4 4 2 3 3 7 5 2 5 6 7 14
7 3 1 7 7 7 8 10 11 13 13 11 14 15 5 2 1 3 5 6 3 4 5 2 1 1 1 2 2 4 4 5 3 3 4 2 2 4 2 3 5 4 3 4 3 5 1
8 5 0 4 5 7 7 7 9 11 12 11 10 12 6 3 2 7 2 3 7 5 3 5 7 2 1 2 1 3 3 3 4 4 4 3 1 5 6 3 6 7 5 1 2 5 10
11 5 2 3 4 7 6 7 8 11 11 10 7 8 7 2 11 3 2 4 9 2 3 9 3 2 2 2 3 3 3 4 3 2 6 6 5 3 4 4 7 3 2 4 4 3 5
10 7 2 2 3 6 6 7 8 11 9 10 7 7 8 5 6 17 12 6 11 16 12 6 6 5 3 1 0 1 2 1 4 2 2 3 6 4 7 5 5 6 5 6 6 4 3
Wind_Direction
360 360 359 359 3 354 355 350 353 359 356 348 344 350 349 349 355 13 18 345 353 354 328 333 323 266 196 224 238 156 252 229 200 205 189 178 179 180 173 164 183 141 174 187 192 187 198
357 358 356 357 358 353 354 352 353 358 353 349 348 355 1 13 28 44 68 68 328 345 323 19 356 254 202 244 288 232 299 187 184 196 188 178 182 176 176 172 170 178 129 115 159 173 155
355 356 356 357 357 1 352 354 352 354 353 351 354 2 9 23 23 38 36 2 10 296 349 339 2 245 228 244 240 241 58 183 182 187 184 183 179 182 161 139 175 175 149 162 167 199 198
352 354 355 357 357 359 359 353 354 352 353 353 1 4 5 14 6 15 18 22 22 330 310 321 301 257 260 355 230 268 29 177 192 191 193 181 169 188 168 163 166 125 113 158 234 166 203
351 351 353 359 359 360 359 360 354 352 349 352 357 1 5 8 38 52 57 55 52 23 36 68 66 293 283 17 198 310 28 147 180 185 184 179 186 193 220 130 103 193 159 179 178 198 160
349 351 356 358 359 1 5 4 359 355 349 349 352 356 8 6 41 32 25 20 68 71 68 54 9 326 353 322 353 157 258 206 170 181 181 167 177 161 164 167 185 190 161 193 176 199 188
346 351 354 354 360 3 5 8 4 5 355 346 351 347 360 3 343 29 21 127 120 76 47 310 314 284 316 349 103 138 252 245 153 172 154 176 166 196 172 122 146 116 113 152 193 195 184
344 349 352 349 354 358 9 8 2 2 2 352 349 335 345 353 343 354 42 73 86 55 342 6 297 292 327 2 90 94 170 233 165 146 137 149 195 168 128 189 117 149 175 179 137 219 192
340 344 347 346 348 355 359 359 0 358 357 355 348 332 317 9 10 19 42 88 99 61 109 359 16 10 3 47 43 90 270 48 133 163 153 148 158 145 159 178 143 91 151 181 153 90 76
335 339 340 344 345 349 349 351 355 353 352 350 346 335 314 248 231 325 318 131 87 353 79 1 356 19 9 53 46 50 277 116 186 135 145 96 158 143 155 185 123 143 209 190 179 139 188
330 334 334 338 343 347 345 347 348 349 346 346 343 335 317 289 229 237 281 251 288 279 66 351 12 346 352 59 128 349 48 82 80 102 105 109 113 145 147 159 141 219 196 159 112 100 107
324 329 331 333 338 345 343 343 341 341 343 344 338 327 311 294 272 230 274 276 326 41 341 350 168 249 1 288 87 54 46 62 55 78 57 59 39 56 106 89 104 142 87 47 55 73 294
318 325 330 331 336 339 342 343 340 336 342 339 339 296 319 291 305 247 268 226 40 66 322 320 318 147 156 123 85 40 42 50 112 94 48 40 11 40 347 87 18 80 94 43 354 317 232
311 321 331 331 335 341 342 344 344 341 344 340 342 193 321 339 340 84 151 64 69 232 189 261 237 308 94 147 52 46 127 109 8 82 133 151 173 193 338 94 158 123 98 166 189 204 238
310 324 332 332 334 341 342 343 347 345 347 341 345 177 265 14 93 146 304 50 175 196 214 178 142 227 132 144 121 139 281 183 185 190 131 153 128 203 334 114 179 175 192 205 114 79 64
312 325 332 335 335 342 346 349 351 349 353 349 236 173 228 358 139 156 60 189 165 203 263 164 195 190 159 164 159 159 184 185 193 182 154 188 124 211 142 106 3 152 321 179 355 152 250
306 321 330 334 340 344 352 354 353 353 0 1 140 132 168 337 168 297 140 227 224 225 221 198 201 218 169 172 158 181 190 191 180 181 179 154 122 144 161 206 183 174 188 224 124 157 188
302 318 328 337 342 348 355 355 355 354 3 18 116 64 198 150 281 209 165 206 254 187 183 272 251 11 100 172 172 106 159 164 178 151 181 179 135 151 202 213 225 213 207 198 181 217 228
298 316 331 340 346 353 355 356 357 356 359 12 81 95 173 217 266 250 291 284 294 217 211 161 207 208 34 23 69 84 102 73 83 139 164 175 39 91 54 195 221 218 195 201 149 46 207
294 319 333 345 351 352 355 357 1 359 3 25 67 80 108 238 281 296 197 245 281 263 262 205 202 89 107 106 58 148 119 24 43 84 114 132 144 165 187 199 138 203 199 197 176 188 194
285 314 338 348 353 353 353 2 9 8 20 84 59 45 27 278 229 334 311 185 182 269 264 203 269 217 153 181 149 152 129 66 14 94 95 116 180 132 247 197 158 212 190 193 213 221 211
270 313 340 352 353 353 355 6 14 23 37 63 100 61 19 293 311 302 346 243 215 232 175 269 214 319 215 202 193 197 141 183 204 124 122 27 143 83 322 279 258 272 254 213 216 228 245
260 302 344 356 354 1 0 12 21 28 39 64 71 94 160 287 336 35 356 340 2 355 264 257 209 301 128 176 140 66 180 188 171 161 167 119 126 82 275 354 350 298 228 215 216 213 215
240 259 357 355 359 7 20 29 26 30 38 47 42 62 77 299 43 31 349 317 353 319 298 308 322 207 86 191 146 102 87 94 142 159 150 138 118 106 224 22 317 242 199 212 220 233 217
215 215 358 356 8 18 20 27 31 28 29 38 39 39 50 67 332 344 346 325 326 324 275 261 278 121 80 116 67 72 356 29 201 177 161 158 170 137 147 200 287 290 197 170 174 266 223
197 185 341 4 20 21 14 11 17 28 32 33 33 28 19 33 16 347 324 326 329 326 329 300 296 264 157 87 192 176 190 204 192 196 134 184 164 133 209 251 252 256 301 227 157 289 13
180 186 8 3 12 6 359 10 5 18 17 17 28 29 22 348 251 343 30 316 331 331 289 306 330 348 121 101 130 219 237 199 184 198 167 151 158 177 226 245 283 255 257 125 89 254 323
180 185 215 353 357 357 351 356 351 352 359 9 52 40 24 287 290 179 351 311 319 329 306 344 300 336 41 140 152 232 174 231 156 196 170 167 176 191 197 218 271 236 93 180 236 291 331
181 179 213 355 346 353 355 353 350 352 9 24 54 20 339 310 279 302 299 290 261 255 271 309 321 323 358 242 152 352 255 147 166 236 62 196 187 187 178 213 249 241 238 273 255 255 218